TimeEDT,TemperatureF,Dew PointF,Humidity,Sea Level PressureIn,VisibilityMPH,Wind Direction,Wind SpeedMPH,Gust SpeedMPH,PrecipitationIn,Events,Conditions,WindDirDegrees,DateUTC
12:56 AM,48.9,46.0,90,29.99,-9999.0,South,8.1,-,N/A,,Unknown,180,2013-08-08 04:56:00
1:56 AM,48.0,44.1,86,29.99,-9999.0,South,9.2,-,N/A,,Unknown,180,2013-08-08 05:56:00
2:56 AM,46.9,44.1,90,29.99,-9999.0,South,10.4,-,N/A,,Unknown,170,2013-08-08 06:56:00
3:56 AM,48.9,43.0,80,29.99,-9999.0,South,8.1,-,N/A,,Unknown,190,2013-08-08 07:56:00
4:56 AM,52.0,43.0,71,30.00,-9999.0,SSW,9.2,-,N/A,,Unknown,200,2013-08-08 08:56:00
5:56 AM,50.0,44.1,80,30.00,-9999.0,South,8.1,-,N/A,,Unknown,190,2013-08-08 09:56:00
6:56 AM,48.0,44.1,86,30.01,-9999.0,South,9.2,-,N/A,,Unknown,180,2013-08-08 10:56:00
7:56 AM,51.1,46.0,83,30.00,-9999.0,South,6.9,-,N/A,,Unknown,180,2013-08-08 11:56:00
8:56 AM,57.9,50.0,75,30.00,-9999.0,South,4.6,-,N/A,,Unknown,180,2013-08-08 12:56:00
9:56 AM,64.0,51.1,63,30.01,-9999.0,East,3.5,-,N/A,,Unknown,90,2013-08-08 13:56:00
10:56 AM,64.9,54.0,68,30.02,-9999.0,ENE,6.9,-,N/A,,Unknown,70,2013-08-08 14:56:00
11:56 AM,68.0,54.0,61,30.03,-9999.0,ENE,8.1,-,N/A,,Unknown,60,2013-08-08 15:56:00
12:56 PM,68.0,50.0,52,30.03,-9999.0,NNW,11.5,-,N/A,,Unknown,330,2013-08-08 16:56:00
1:56 PM,68.0,57.0,68,30.03,-9999.0,NE,6.9,-,N/A,,Unknown,50,2013-08-08 17:56:00
2:56 PM,66.0,55.0,68,30.03,-9999.0,NE,10.4,-,N/A,,Unknown,40,2013-08-08 18:56:00
3:56 PM,64.9,55.9,73,30.02,-9999.0,NE,10.4,-,N/A,,Unknown,40,2013-08-08 19:56:00
4:56 PM,66.9,55.9,68,30.01,-9999.0,NE,11.5,-,N/A,,Unknown,40,2013-08-08 20:56:00
5:56 PM,64.9,53.1,65,30.01,-9999.0,NE,9.2,-,N/A,,Unknown,50,2013-08-08 21:56:00
6:56 PM,64.0,52.0,65,30.00,-9999.0,NNE,6.9,-,N/A,,Unknown,20,2013-08-08 22:56:00
7:56 PM,61.0,53.1,75,30.00,-9999.0,ENE,3.5,-,0.03,,Unknown,70,2013-08-08 23:56:00
8:56 PM,59.0,55.0,87,29.99,-9999.0,Calm,Calm,-,0.01,,Unknown,0,2013-08-09 00:56:00
9:56 PM,59.0,54.0,83,29.99,-9999.0,South,4.6,-,N/A,,Unknown,190,2013-08-09 01:56:00
10:56 PM,59.0,53.1,81,29.98,-9999.0,Calm,Calm,-,N/A,,Unknown,0,2013-08-09 02:56:00
11:56 PM,57.9,54.0,87,29.97,-9999.0,SSW,5.8,-,N/A,,Unknown,200,2013-08-09 03:56:00